Showing default

HAWK-5B, 52756

Orbit data source: Space-Track

HAWK-5B, 52756 is a payload satellite owned by HawkEye 360 (US) in SSO that was launched on Wed, 25 May 2022 UTC via an FALCON 9 launch vehicle from the Air Force Eastern Test Range (AFETR). Payload-class satellites include a variety of spacecraft equipped with specific instruments for various scientific and technological missions. These include communications satellites like Starlink; space stations such as the ISS; scientific satellites like the Hubble; Earth observation satellites from companies like Planet Labs, Umbra, and HawkEye 360; GPS; miniature CubeSats for education and research; and military/defense satellites.

Loading next visibility...
Identifier
52756, 2022-057AA
Orbit
SSO
Country
Flag of USUS
Related business
Manufacturer
UTIAS-SFL
Mission
Operational Commercial Sigint
Bus & Motor
DEFIANT, Unknown motor
Mass
31 kg wet, 30 kg dry
Launch date (UTC)
2022-05-25 (4 years ago)
Launch vehicle
FALCON 9
Launch site
Air Force Eastern Test Range (AFETR)
Object type
Payload
Rocket body
Debris
Shape & HBR
Box + 2 Pan, 1.0 m
Radar Cross Section
0.348 m², Medium (>0.1 m² and < 1m²)

Expand to show TLE details & history
Last TLE update: 2 days ago

TLE from 2 days ago
0 HAWK-5B
1 52756U 22057AA  26171.39787853  .00015995  00000-0  27217-3 0  9999
2 52756  97.6617 329.6212 0005480  66.4808 293.7018 15.51491667226844
Epoch: 2026-06-20T09:32Z
TLE epoch observation values (Epoch: 2026-06-20T09:32:56.704Z)
Latitude
-0.00013°
Longitude
-82.22813°
Altitude
414.001 km
Speed
7.663 km/s
True Right ascension
21h 58m 29s
True Declination
0° 00' 00"
Sunlit
Object was in full shadow at epoch
Visualization orbit readout
Latitude
Unknown
Longitude
Unknown
Altitude
Unknown
Speed
Unknown
Apparent Right ascension
Unknown
Apparent Declination
Unknown
Sunlit
N/A
Visualization observer readout
Local Sidereal Time
21:54:18
Azimuth
Unknown
Elevation
Unknown
Doppler factor
Unknown
Orbital elements
Apogee altitude
413.025 km
Perigee altitude
405.586 km
Semi-major axis
6,787.442 km
Eccentricity
0.00055
Inclination
97.6617°
RAAN
329.6212°
Arg. of periapsis
66.4808°
True anomaly
293.64428°
Mean anomaly
293.7018°
Eccentric anomaly
293.67304°
Mean motion
3.88136 °/min
Orbital period
92.75 mins
BSTAR
0.00027217
Loading maneuver chart data...
Computing Atmospheric mass density...
Loading historical data...
Loading historical data...
Loading historical data...
Loading historical data...
Loading historical data...
Loading historical data...
Loading historical data...

Documentation

Showing up to 5 results
|